Regional Weather Roundup
Issued by NWS

Home | Current Version | Previous Version | Graphics & Text | Print | Product List | Glossary On
Versions: 1 2 3 4 5 6 7 8 9 10 11 12 13 14 15 16 17 18 19 20 21 22 23 24 25 26 27 28 29 30 31 32 33 34 35 36 37 38 39 40 41 42 43 44 45 46 47 48 49 50
000
ASUS43 KDTX 311910
RWRMI
MICHIGAN HOURLY REGIONAL WEATHER ROUNDUP
NATIONAL WEATHER SERVICE DETROIT/PONTIAC MI
300 PM EDT MON AUG 31 2015

NOTE: "FAIR" INDICATES FEW OR NO CLOUDS BELOW 12,000 FEET WITH NO
SIGNIFICANT WEATHER AND/OR OBSTRUCTION TO VISIBILITY.

MIZ047>049-052>055-059>063-066>070-074>076-081>083-312000-
SOUTHEAST LOWER MICHIGAN

CITY           SKY/WX    TMP DP  RH WIND       PRES   REMARKS
ADRIAN         MOSUNNY   86  66  51 SW9       30.08S
ALMA           MOSUNNY   74  67  77 W5        30.08F
ANN ARBOR      MOSUNNY   83  67  58 W7        30.07F
BAD AXE        SUNNY     75  64  67 W9        30.07S
CARO           SUNNY     74  66  77 S5        30.07F
DETROIT CITY   SUNNY     82  62  50 VRB5      30.06F
DETROIT        PTSUNNY   84  66  54 SW12      30.07F
FLINT          SUNNY     79  64  60 SW7       30.07F
GROSSE ILE     MOSUNNY   81  72  74 SE8       30.05F
HILLSDALE      PTSUNNY   83  67  57 W7        30.09F
HOWELL         MOSUNNY   80  65  59 W7        30.08F

CITY           SKY/WX    TMP DP  RH WIND       PRES   REMARKS
JACKSON        MOSUNNY   80  68  66 W6        30.08F
LAMBERTVILLE   MOSUNNY   86  67  53 W6        30.07F
LANSING        SUNNY     79  66  64 W8        30.08F
LAPEER         FAIR      77  65  65 W7        30.08S
MASON          PTSUNNY   79  64  60 W5        30.08F
MONROE         PTSUNNY   86  67  53 W9        30.06S
MT. CLEMENS    SUNNY     80  64  58 W6        30.05F
PONTIAC        MOSUNNY   80  63  55 W6        30.07F
PORT HOPE        N/A     77  65  66 VRB6      30.04S
PORT HURON     SUNNY     77  66  69 SW3       30.07S
TRI CITIES     SUNNY     77  65  66 SW10      30.07F
MIDLAND        FAIR      78  64  62 SW5       30.05F
TROY           SUNNY     83  62  48 CALM      30.08F
SAGINAW HB     SUNNY     77  66  69 SW6       30.06F
$$
MIZ043>046-050>051-056>058-064>065-071>073-077>080-312000-
SOUTHWEST LOWER MICHIGAN

CITY           SKY/WX    TMP DP  RH WIND       PRES   REMARKS
BATTLE CREEK   MOSUNNY   80  66  62 SW6       30.09F
BENTON HARBOR  SUNNY     79  67  66 SW8       30.07F
BIG RAPIDS     SUNNY     76  65  69 SW5       30.06F
COLDWATER      MOSUNNY   83  67  58 SW9       30.08F
FREMONT        PTSUNNY   76  67  72 S5        30.06F
HOLLAND        SUNNY     79  66  64 VRB5      30.08S
GRAND RAPIDS   MOSUNNY   79  66  64 SW7       30.07F
IONIA          FAIR      79  66  64 SW5       30.07F
KALAMAZOO      MOSUNNY   82  66  58 W6        30.08F
LUDINGTON      SUNNY     76  68  77 SW12      30.06F
MARSHALL       MOSUNNY   82  68  63 SW6       30.08F
MOUNT PLEASANT SUNNY     79  65  60 SW6       30.06F
MUSKEGON       PTSUNNY   76  65  68 W7        30.07F
SOUTH HAVEN    SUNNY     79  68  69 W8        30.07S
$$
MIZ016>042-312000-
NORTHERN LOWER MICHIGAN

CITY           SKY/WX    TMP DP  RH WIND       PRES   REMARKS
ALPENA         SUNNY     79  66  64 E10       30.02F
BEAVER ISLAND  CLOUDY    68  65  89 SW13      30.02S FOG
BELLAIRE       SUNNY     80  62  54 SW6       30.02F
CADILLAC       SUNNY     77  65  66 SW8       30.06F
CHARLEVOIX     SUNNY     78  67  69 W9        30.04F
FRANKFORT      SUNNY     74  67  78 S9        30.04F
GAYLORD        SUNNY     80  64  58 SW10      30.04F
GRAYLING       SUNNY     81  63  53 CALM      30.05S
HARBOR SPRINGS SUNNY     78  67  69 W6        30.01S
HOUGHTON LAKE  SUNNY     80  63  55 W6        30.05F
MANISTEE       MOSUNNY   77  64  65 W9        30.05S
OSCODA         SUNNY     82  65  57 S8        30.01F
PELLSTON       SUNNY     79  66  64 W12       30.02S
ROGERS CITY    SUNNY     70  65  83 NE8       30.04R HAZE
TRAVERSE CITY  SUNNY     80  64  58 SW10      30.01F
$$
MIZ007>008-015-312000-
EASTERN UPPER MICHIGAN

CITY           SKY/WX    TMP DP  RH WIND       PRES   REMARKS
KINROSS        CLOUDY    73  66  78 SW6       30.01F
MACKINAC ISLAN SUNNY     72  65  80 W10G18    30.01F
NEWBERRY       SUNNY     75  65  72 S10       29.99S
S. S. MARIE    CLOUDY    73  65  75 S7        30.00F
MUNISING         N/A     84  66  54 S10G17    29.93F
$$
MIZ004>006-011>014-085-312000-
CENTRAL UPPER MICHIGAN

CITY           SKY/WX    TMP DP  RH WIND       PRES   REMARKS
MANISTIQUE     CLOUDY    66  63  90 S9        29.99F FOG
ESCANABA       SUNNY     70  64  83 S16       29.97S
MENOMINEE      SUNNY     75  64  69 SW14      29.98F
SAWYER-GWINN   SUNNY     84  61  45 S13       29.96S
$$
MIZ001>003-009>011-084-312000-
WESTERN UPPER MICHIGAN

CITY           SKY/WX    TMP DP  RH WIND       PRES   REMARKS
IRON MOUNTAIN  SUNNY     84  65  52 S10       29.96F
HOUGHTON       SUNNY     83  64  52 SE6       29.90F
IRONWOOD       SUNNY     81  63  54 S9G17     29.89F
$$

ABBREVIATIONS USED IN REMARKS
   TC - TEMPERATURE IN CELSIUS
  WCI - WIND CHILL INDEX
   HX - HEAT INDEX
  VSB - VISIBILITY



USA.gov is the U.S. government's official web portal to all federal, state and local government web resources and services.